User: anonymous   Login
Location: Brachbach
(49.1847°N, 9.7240°E)
Time: 05:12:10
(UTC+00:00)
Language:

AQUA - Orbit

View from above orbital plane
View from above orbital plane
View from above satellite
View from above satellite

Ground track
Ground track

The orbit data is extracted from the following two-line orbital elements,

1 27424U 02022A   24204.81297103  .00002578  00000-0  55289-3 0  9992
2 27424  98.3315 154.3229 0001765  58.1481 332.0388 14.59511713181916
Epoch (UTC): 22 July 2024 19:30:40
Eccentricity: 0.0001765
inclination: 98.3315°
perigee height: 693 km
apogee height: 696 km
right ascension of ascending node: 154.3229°
argument of perigee: 58.1481°
revolutions per day: 14.59511713
mean anomaly at epoch: 332.0388°
orbit number at epoch: 18191

The dashed part of the orbit path shows where the satellite is in the earth's shadow,  

DLR